Location: St. Louis
(38.6270°N, 90.1994°W)
Time: 08:08:41
(UTC-06:00)

Transit 2A Rocket - Pass Details

Date: 06 December 2021
Orbit: 584 x 917 km, 66.7° (Epoch: 23 January)

Event Time Altitude Azimuth Distance (km) Brightness Sun altitude
Rises 17:44:27 0° 309° (NW) 3,509 8.9 -12.5°
Reaches altitude 10° 17:48:59 10° 278° (W) 2,504 8.7 -13.3°
Maximum altitude 17:50:43 11° 260° (W) 2,375 8.9 -13.6°
Drops below altitude 10° 17:52:26 10° 242° (WSW) 2,441 9.0 -13.9°
Sets 17:56:42 0° 210° (SSW) 3,280 9.0 -14.7°
